Regional Weather Roundup
Issued by NWS Sioux Falls, SD

Home | Current Version | Previous Version | Text Only | Print | Product List | Glossary On
Versions: 1 2 3 4 5 6 7 8 9 10 11 12 13 14 15 16 17 18 19 20 21 22 23 24 25 26 27 28 29 30 31 32 33 34 35 36 37 38 39 40 41 42 43 44 45 46 47 48 49 50
000
ASUS43 KFSD 051602
RWRFSD

WEATHER ROUNDUP FOR SE SOUTH DAKOTA/SW MINNESOTA/NW IOWA
NATIONAL WEATHER SERVICE SIOUX FALLS SD
1000 AM CST MON DEC 05 2016

NOTE: "FAIR" INDICATES FEW OR NO CLOUDS BELOW 12,000 FEET WITH NO
SIGNIFICANT WEATHER AND OR OBSTRUCTIONS TO VISIBILITY.


SDZ038>040-050-052>070-051700-
SOUTHEAST SOUTH DAKOTA

CITY           SKY/WX    TMP DP  RH WIND       PRES   REMARKS
CHAMBERLAIN    NOT AVBL
HURON          CLOUDY    34  29  82 MISG      29.50F
MADISON        FAIR      32  32 100 S10       29.54R WCI  24
MITCHELL       CLOUDY    36  30  79 SE8       29.50F
SIOUX FALLS    CLOUDY    39  30  70 S15G22    29.54F
WINNER         FAIR      48  28  46 W18       29.46S
YANKTON        FAIR      41  27  56 S12       29.55S
$$

MNZ071-072-080-081-089-090-097-098-051700-
SOUTHWEST MINNESOTA

CITY           SKY/WX    TMP DP  RH WIND       PRES   REMARKS
FAIRMONT       CLOUDY    36  31  82 S13       29.70F
JACKSON        CLOUDY    34  30  86 S9        29.66F WCI  26
LUVERNE        CLOUDY    34  30  86 S13G18    29.58F WCI  25
MARSHALL       CLOUDY    36  31  82 SE9       29.60F
MONTEVIDEO     MOSUNNY   34  34 100 SE12      29.63F WCI  25
PIPESTONE      CLOUDY    36  30  80 S10       29.54F
REDWOOD FALLS  PTSUNNY   35  30  82 SE9       29.64F WCI  28
TRACY          CLOUDY    37  32  83 S6        29.60S
WINDOM         FAIR      37  30  75 S16G24    29.62F
WORTHINGTON    CLOUDY    36  30  79 S16       29.62F
$$

IAZ001>003-012>014-020>022-031-032-NEZ013-014-SDZ071-051700-
NORTHWEST IOWA

CITY           SKY/WX    TMP DP  RH WIND       PRES   REMARKS
DENISON        FAIR      37  32  81 S18G26    29.70S
ESTHERVILLE    CLOUDY    35  32  88 S15       29.68S WCI  25
SIOUX CITY     FAIR      43  31  62 S16       29.65F
SPENCER        PTSUNNY   39  33  79 S20       29.66F
$$

ABBREVIATIONS USED IN REMARKS
   TC - TEMPERATURE IN CELSIUS
  WCI - WIND CHILL INDEX
   HX - HEAT INDEX
  VSB - VISIBILITY





USA.gov is the U.S. government's official web portal to all federal, state and local government web resources and services.